Petersburg, WV

7:39 PM EST on November 19, 2017 (GMT -0500)
Petersburg

Weather History for KW99 - December, 2013

Change the Weather History Date:

Saturday, December 28, 2013

  Actual Average (KEKN) Record (KEKN)
Temperature  
Mean Temperature 42 °F -  
Max Temperature 61 °F 40 °F 67 °F (1984)
Min Temperature 23 °F 21 °F -2 °F (2000)
Degree Days  
Heating Degree Days 23    
Moisture  
Dew Point 27 °F    
Average Humidity 65    
Maximum Humidity 93    
Minimum Humidity 25    
Precipitation  
Precipitation 0.00 in - - ()
Sea Level Pressure  
Sea Level Pressure 30.23 in    
Wind  
Wind Speed 1 mph (WSW)    
Max Wind Speed 10 mph    
Max Gust Speed -    
Visibility 10 miles    
Events      
Averages and records for this station are not official NWS values.
T = Trace of Precipitation, MM = Missing Value Source: NWS Daily Summary

Daily Weather History Graph

Daily Weather History Graph

Search for Another Location

Airport or City:

Trip Planner

Search our weather history database for the weather conditions in past years. The results will help you decide how hot, cold, wet, or windy it might be!

Date:

Astronomy

Dec. 28, 2013 Rise Set
Actual Time 7:34 AM EST 5:02 PM EST
Civil Twilight 7:04 AM EST 5:32 PM EST
Nautical Twilight 6:31 AM EST 6:05 PM EST
Astronomical Twilight 5:58 AM EST 6:37 PM EST
Moon 3:10 AM EST (12/28) 1:50 PM EST (12/28)
Length of Visible Light 10h 27m
Length of Day
9h 27m
Waning Crescent, 19% of the Moon is Illuminated
Dec 28
Waning Crescent
Jan 1
New
Jan 7
First Quarter
Jan 15
Full
Jan 24
Last Quarter

Hourly Weather History & Observations

Time (EST) Temp. Windchill Dew Point Humidity Pressure Visibility Wind Dir Wind Speed Gust Speed Precip Events Conditions
12:15 AM 26.6 °F - 23.4 °F 88% 30.34 in 10.0 mi Calm Calm - N/A   Clear
12:35 AM 26.2 °F - 23.2 °F 88% 30.34 in 10.0 mi Calm Calm - N/A   Clear
12:55 AM 26.1 °F - 23.2 °F 89% 30.33 in 10.0 mi Calm Calm - N/A   Clear
1:15 AM 27.1 °F - 24.1 °F 88% 30.32 in 10.0 mi Calm Calm - N/A   Clear
1:35 AM 26.4 °F - 23.5 °F 89% 30.31 in 10.0 mi Calm Calm - N/A   Clear
1:55 AM 26.2 °F - 23.4 °F 89% 30.30 in 10.0 mi Calm Calm - N/A   Clear
2:15 AM 26.4 °F - 23.9 °F 90% 30.30 in 10.0 mi Calm Calm - N/A   Clear
2:35 AM 26.8 °F - 24.1 °F 90% 30.29 in 10.0 mi Calm Calm - N/A   Clear
2:55 AM 25.7 °F - 23.5 °F 92% 30.30 in 10.0 mi Calm Calm - N/A   Clear
3:15 AM 25.5 °F - 23.2 °F 91% 30.29 in 10.0 mi Calm Calm - N/A   Clear
3:35 AM 25.7 °F - 23.7 °F 92% 30.29 in 7.0 mi Calm Calm - N/A   Clear
3:55 AM 25.0 °F - 22.8 °F 91% 30.28 in 7.0 mi Calm Calm - N/A   Clear
4:15 AM 25.9 °F - 23.5 °F 91% 30.28 in 10.0 mi Calm Calm - N/A   Clear
4:35 AM 25.7 °F - 23.4 °F 91% 30.28 in 10.0 mi Calm Calm - N/A   Clear
4:55 AM 24.8 °F - 22.5 °F 91% 30.28 in 10.0 mi Calm Calm - N/A   Clear
5:15 AM 25.0 °F - 22.6 °F 91% 30.28 in 10.0 mi Calm Calm - N/A   Clear
5:35 AM 25.0 °F - 23.0 °F 92% 30.28 in 10.0 mi Calm Calm - N/A   Clear
5:55 AM 23.9 °F - 22.1 °F 93% 30.28 in 10.0 mi Calm Calm - N/A   Clear
6:15 AM 23.4 °F - 21.4 °F 92% 30.29 in 10.0 mi Calm Calm - N/A   Clear
6:35 AM 24.3 °F - 21.7 °F 90% 30.30 in 10.0 mi Calm Calm - N/A   Clear
6:55 AM 24.8 °F - 22.8 °F 92% 30.30 in 10.0 mi Calm Calm - N/A   Clear
7:15 AM 26.2 °F - 24.4 °F 93% 30.30 in 10.0 mi Calm Calm - N/A   Clear
7:35 AM 25.0 °F - 22.8 °F 91% 30.30 in 10.0 mi Calm Calm - N/A   Clear
7:55 AM 27.1 °F - 25.2 °F 92% 30.30 in 10.0 mi Calm Calm - N/A   Clear
8:15 AM 29.1 °F - 26.1 °F 88% 30.30 in 10.0 mi Calm Calm - N/A   Clear
8:35 AM 30.9 °F - 27.1 °F 86% 30.29 in 10.0 mi Calm Calm - N/A   Clear
8:55 AM 32.9 °F - 29.5 °F 87% 30.29 in 10.0 mi Calm Calm - N/A   Clear
9:15 AM 36.3 °F - 31.8 °F 84% 30.30 in 10.0 mi Calm Calm - N/A   Clear
9:35 AM 41.4 °F - 33.8 °F 74% 30.30 in 10.0 mi Calm Calm - N/A   Clear
9:55 AM 45.5 °F - 37.2 °F 73% 30.29 in 10.0 mi Calm Calm - N/A   Clear
10:15 AM 47.5 °F - 37.8 °F 69% 30.29 in 10.0 mi Calm Calm - N/A   Clear
10:35 AM 51.1 °F - 35.8 °F 56% 30.28 in 10.0 mi Calm Calm - N/A   Clear
10:55 AM 56.3 °F - 26.1 °F 31% 30.27 in 10.0 mi Calm Calm - N/A   Clear
11:15 AM 56.7 °F - 24.4 °F 29% 30.27 in 10.0 mi Calm Calm - N/A   Clear
11:35 AM 55.6 °F - 24.8 °F 30% 30.26 in 10.0 mi Calm Calm - N/A   Clear
11:55 AM 57.4 °F - 24.1 °F 28% 30.24 in 10.0 mi West 10.4 mph - N/A   Clear
12:15 PM 56.8 °F - 23.4 °F 27% 30.23 in 10.0 mi WSW 6.9 mph - N/A   Clear
12:35 PM 58.1 °F - 23.4 °F 26% 30.22 in 10.0 mi West 8.1 mph - N/A   Clear
12:55 PM 58.3 °F - 22.8 °F 25% 30.20 in 10.0 mi SW 4.6 mph - N/A   Clear
1:15 PM 59.2 °F - 23.4 °F 25% 30.20 in 10.0 mi SW 8.1 mph - N/A   Clear
1:35 PM 59.5 °F - 23.9 °F 25% 30.19 in 10.0 mi SSW 9.2 mph - N/A   Clear
1:55 PM 60.4 °F - 24.1 °F 25% 30.18 in 10.0 mi SSW 10.4 mph - N/A   Clear
2:15 PM 60.6 °F - 25.2 °F 26% 30.17 in 10.0 mi Calm Calm - N/A   Clear
2:35 PM 61.5 °F - 24.8 °F 25% 30.17 in 10.0 mi Calm Calm - N/A   Clear
2:55 PM 61.5 °F - 25.5 °F 25% 30.17 in 10.0 mi Calm Calm - N/A   Clear
3:15 PM 61.7 °F - 25.3 °F 25% 30.19 in 10.0 mi Calm Calm - N/A   Clear
3:35 PM 61.3 °F - 25.0 °F 25% 30.19 in 10.0 mi Calm Calm - N/A   Clear
3:55 PM 60.8 °F - 24.4 °F 25% 30.19 in 10.0 mi Calm Calm - N/A   Clear
4:15 PM 57.4 °F - 27.9 °F 32% 30.17 in 10.0 mi Calm Calm - N/A   Clear
4:35 PM 56.1 °F - 29.1 °F 36% 30.18 in 10.0 mi Calm Calm - N/A   Clear
4:55 PM 51.6 °F - 30.0 °F 44% 30.18 in 10.0 mi Calm Calm - N/A   Clear
5:15 PM 48.9 °F - 30.9 °F 50% 30.19 in 10.0 mi Calm Calm - N/A   Clear
5:35 PM 50.5 °F - 28.0 °F 42% 30.18 in 10.0 mi Calm Calm - N/A   Clear
5:55 PM 49.1 °F - 29.1 °F 46% 30.17 in 10.0 mi SSE 3.5 mph - N/A   Clear
6:15 PM 48.0 °F - 28.8 °F 47% 30.18 in 10.0 mi Calm Calm - N/A   Clear
6:35 PM 45.7 °F - 30.2 °F 55% 30.17 in 10.0 mi Calm Calm - N/A   Clear
6:55 PM 42.8 °F - 30.9 °F 63% 30.17 in 10.0 mi Calm Calm - N/A   Clear
7:15 PM 43.0 °F - 30.6 °F 62% 30.17 in 10.0 mi Calm Calm - N/A   Clear
7:35 PM 42.8 °F - 31.3 °F 64% 30.17 in 10.0 mi Calm Calm - N/A   Clear
7:55 PM 42.3 °F - 31.8 °F 67% 30.17 in 10.0 mi Calm Calm - N/A   Clear
8:15 PM 40.1 °F - 32.4 °F 74% 30.16 in 10.0 mi Calm Calm - N/A   Clear
8:35 PM 40.8 °F - 32.2 °F 71% 30.16 in 10.0 mi Calm Calm - N/A   Clear
8:55 PM 40.8 °F - 32.2 °F 71% 30.16 in 10.0 mi Calm Calm - N/A   Clear
9:15 PM 40.1 °F - 32.2 °F 73% 30.15 in 10.0 mi Calm Calm - N/A   Clear
9:35 PM 40.3 °F - 32.2 °F 73% 30.14 in 10.0 mi Calm Calm - N/A   Clear
9:55 PM 40.1 °F - 33.3 °F 77% 30.14 in 10.0 mi Calm Calm - N/A   Clear
10:15 PM 39.6 °F 37.4 °F 33.4 °F 79% 30.14 in 10.0 mi NW 3.5 mph - N/A   Clear
10:35 PM 42.4 °F - 32.7 °F 68% 30.13 in 10.0 mi Calm Calm - N/A   Clear
10:55 PM 40.6 °F - 32.9 °F 74% 30.12 in 10.0 mi Calm Calm - N/A   Clear
11:15 PM 39.7 °F 37.6 °F 32.9 °F 77% 30.12 in 10.0 mi WNW 3.5 mph - N/A   Clear
11:35 PM 39.9 °F - 32.9 °F 76% 30.10 in 10.0 mi Calm Calm - N/A   Clear
11:55 PM 39.7 °F - 33.1 °F 77% 30.10 in 10.0 mi Calm Calm - N/A   Scattered Clouds